一网星座-0297星 (ONEWEB-0297 )

导读

ONEWEB-0297是英国OneWeb卫星互联网星座的一颗低轨卫星,于2021年8月21日发射入轨。它隶属于OneWeb的全球低轨卫星通信网络项目,该项目规划在1200公里高度的近地轨道部署数百颗卫星,通过Ku波段提供全球高速互联网接入服务。作为OneWeb星座的组成部分,它为全球偏远地区通信、网络覆盖补充提供支持,助力构建天地一体化的高速通信网络。

基本信息
目录编号:
49086
目录名称:
ONEWEB-0297
国际标识:
2021-075M
轨道中心:
EARTH
卫星名称:
一网星座-0297星
卫星全名:
一网星座-0297星 (ONEWEB-0297 )
卫星状态:
在轨 (已飞行1847 天)
发射日期:
2021-08-21 UTC
国别 :
英国 (GB)
星等 :
--
该卫星已列入 空间交会检测服务 Space Conjunction Data Service (SCDS) ,当前飞行风险评估等级: 无高风险
轨道信息
数据来源 国际轨道数据 AOE轨道数据
星历时间 2026-09-11T12:24:32+0800
11小时前
查看轨道信息
2026-09-07T01:00:00+0800
4天前
查看轨道信息
半长轴 7591.859km 7591.87km
偏心率 0.0001857 0.0001846
轨道倾角 87.898° 87.900°
近地点辐角 103.373° 104.212°
升交点赤经 333.598° 334.486°
平近点角 256.760° 2.701°
近地点 1212.312km 1212.331km
远地点 1215.132km 1215.135km
周期 109.719分钟 109.719分钟
每日圈数 13.124434 13.124406
详细信息
平衡模式:
三轴稳定
覆盖范围:
全球
运营商:
一网卫星公司
运营商所在国:
英国
制造商(研发单位):
一网卫星公司
制造商所在国:
英国
使用方式:
暂无
卫星简介
OneWeb卫星网络由648颗重约125公斤的微型卫星组成,运行在1200公里的轨道上。 每颗卫星都能够提供至少每秒8千兆位的吞吐量,以使用其高吞吐量的Ku频段有效载荷为家庭和移动平台提供互联网接入。该卫星仍在工作。
2D轨道图
3D轨道图
轨道高度分析图
轨道倾角分析图
轨道综合分析图
查看轨道综合分析图
与全量物体交会距离演化趋势
与全量物体交会风险概率演化趋势